|
NORAD ID: 29275 Int'l Code: 2006-033D
Perigee: 248.8 km
Apogee: 34,365.4 km
Inclination: 5.8 °
Period: 604.3 minutes
Semi major axis: 23678 km
Launch date: August 11, 2006
Source: France (FR)
Note: This is a ROCKET BODY
Two Line Element Set (TLE):
1 29275U 06033D 13141.47549252 .00008274 00000-0 19118-2 0 4904
2 29275 005.7915 151.2909 7204261 093.5954 012.2850 02.38277346 57640
Source:
NASA's NSSDC Master Catalog entry for ARIANE 5 R/B
|